OpenBCM V1.08-5-g2f4a (Linux)

Packet Radio Mailbox

IZ3LSV

[San Dona' di P. JN]

 Login: GUEST





  
LU1HVK > KEPLER   10.01.20 17:03l 243 Lines 12025 Bytes #999 (0) @ WW
BID : 38758_LU1HVK
Read: GUEST
Subj: TLE 06 11
Path: IZ3LSV<ED1ZAC<IW0QNL<OK0NBR<OK2PEN<N3HYM<XE1FH<LU3DVN<LU1HVK
Sent: 200110/1557Z 38758@LU1HVK.2594.CBA.ARG.SA LinBPQ6.0.19

                         _    _   _ _ _   ___     ___  __
                        | |  | | | / | | | \ \   / / |/ /
                        | |  | | | | | |_| |\ \ / /| ' /
                        | |__| |_| | |  _  | \ V / | . \
                        |_____\___/|_|_| |_|  \_/  |_|\_\

     BBS/NODO - CORDOBA (LEONES-FF87UH) - LU1HVK-4 NODO - LU1HVK-3 APRS

+----------------------------------------------------------------------------+
OSCAR 7
1  7530U 74089B   19309.90850442 -.00000030 +00000-0 +96614-4 0  9991
2  7530 101.7652 276.2263 0012507 076.2592 305.2127 12.53640581057853
OSCAR 11 (UoSAT 2)
1 14781U 84021B   19309.83059619 +.00000086 +00000-0 +16708-4 0  9999
2 14781 097.6030 327.8592 0007654 210.7384 149.3383 14.83117681898535
OSCAR 19 (LUSAT)
1 20442U 90005G   19309.81173129  .00000019  00000-0  23349-4 0  9995
2 20442  98.6627 251.6572 0012894  95.7424 264.5230 14.32937028556440
EYESAT A
1 22825U 93061C   19309.92256597 -.00000002 +00000-0 +17196-4 0  9996
2 22825 098.9149 301.8369 0007679 316.1429 043.9142 14.30070256361726
ITAMSAT
1 22826U 93061D   19309.96148844 +.00000012 +00000-0 +22560-4 0  9997
2 22826 098.9089 301.8507 0008065 303.2679 056.7730 14.30404593361953
RADIO ROSTO
1 23439U 94085A   19309.82433915 -.00000043 +00000-0 -16930-4 0  9996
2 23439 064.8158 249.5083 0145346 085.8178 275.9341 11.27568536023691
JAS 2
1 24278U 96046B   19309.82147323 +.00000001 +00000-0 +38977-4 0  9999
2 24278 098.5590 084.3637 0349551 236.6566 120.0660 13.53094551146500
TECHSAT 1B
1 25397U 98043D   19309.82963874 -.00000002 +00000-0 +18454-4 0  9998
2 25397 098.7015 248.3454 0001610 033.9554 326.1728 14.23673646107598
ISS (ZARYA)
1 25544U 98067A   19310.03224704  .00001378  00000-0  31883-4 0  9992
2 25544  51.6445  17.9701 0005918 234.2485 189.3952 15.50257528197265
PCSAT
1 26931U 01043C   19309.53840697 -.00000040 +00000-0 +16446-4 0  9993
2 26931 067.0527 002.8059 0007479 266.4547 093.5699 14.30557514944907
SAUDISAT 1C
1 27607U 02058C   19309.56802370 -.00000001 +00000-0 +20723-4 0  9990
2 27607 064.5556 341.9393 0073397 229.2389 130.2329 14.75586122907547
CUTE-1
1 27844U 03031E   19309.86801459 +.00000057 +00000-0 +45456-4 0  9995
2 27844 098.6850 315.9907 0009639 351.8573 008.2447 14.22203461848174
CUBESAT XI 4
1 27848U 03031J   19309.82980940 +.00000048 +00000-0 +41657-4 0  9997
2 27848 098.6924 316.4808 0009749 004.0299 356.0955 14.21795350848024
MOZHAYETS 4
1 27939U 03042A   19309.89200477 +.00000085 +00000-0 +23769-4 0  9992
2 27939 098.0608 083.1442 0012520 350.0308 010.0641 14.66814796861092
CUBESAT XI 5
1 28895U 05043F   19309.85474007 +.00000135 +00000-0 +34818-4 0  9998
2 28895 097.9795 087.9532 0015491 269.0075 090.9353 14.63707245747751
CUTE-1.7+APD II
1 32785U 08021C   19309.79431418 +.00000218 +00000-0 +29111-4 0  9994
2 32785 097.5577 302.9584 0013683 152.4697 207.7248 14.88368641624453
DELFI C3
1 32789U 08021G   19309.91177590 +.00000760 +00000-0 +54428-4 0  9991
2 32789 097.4490 355.2463 0012261 013.3671 346.7880 15.07231144627981
SEEDS
1 32791U 08021J   19309.84457915 +.00000230 +00000-0 +28598-4 0  9999
2 32791 097.5322 309.0995 0014543 127.2052 233.0496 14.90902895624919
YUBELEINY
1 32953U 08025A   19309.92794434 +.00000020 +00000-0 +75656-4 0  9996
2 32953 082.5052 057.5420 0019693 180.9561 179.1484 12.43091985519738
PRISM (HITOMI)
1 33493U 09002B   19309.85547996 +.00000296 +00000-0 +31422-4 0  9991
2 33493 098.1243 236.1376 0016191 079.2396 281.0646 14.96788273586105
KKS-1 (KISEKI)
1 33499U 09002H   19309.91871210 +.00000127 +00000-0 +26753-4 0  9997
2 33499 098.3380 153.0364 0010227 116.5798 243.6459 14.75476165579473
SWISSCUBE
1 35932U 09051B   19309.89694127 +.00000134 +00000-0 +41391-4 0  9995
2 35932 098.5994 120.0942 0008713 095.5036 264.7155 14.56325874537148
BEESAT
1 35933U 09051C   19309.89156154 +.00000121 +00000-0 +38381-4 0  9990
2 35933 098.6010 121.9035 0006873 106.2975 253.8978 14.56409843537218
ITUPSAT 1
1 35935U 09051E   19309.89283245 +.00000101 +00000-0 +34320-4 0  9991
2 35935 098.6119 122.1313 0009199 105.0132 255.2083 14.55564226537004
XIWANG-1 (HOPE-1)
1 36122U 09072B   19309.73626218 -.00000051  00000-0 -24199-4 0  9996
2 36122 100.0795 305.5644 0007717  26.7229 333.4275 13.16351602475309
TISAT 1
1 36799U 10035E   19309.72749502  .00000468  00000-0  53195-4 0  9996
2 36799  98.1727 106.6902 0011997 352.8502   7.2542 14.91194770505638
JUGNU
1 37839U 11058B   19309.87814858 +.00000299 +00000-0 +17689-4 0  9991
2 37839 019.9601 204.6638 0018978 072.9652 000.0168 14.12663488416998
SRMSAT
1 37841U 11058D   19309.29495927 +.00000313 +00000-0 +26721-4 0  9996
2 37841 019.9721 267.8658 0011646 290.4009 219.9099 14.10642436416335
M-CUBED/EXP-1 PRIME
1 37855U 11061F   19309.89077089 +.00001941 +00000-0 +10375-3 0  9991
2 37855 101.7203 277.4908 0172817 021.1430 339.6813 15.05736011437408
HORYU 2
1 38340U 12025D   19309.86031911 +.00000169 +00000-0 +32718-4 0  9990
2 38340 098.3142 352.5478 0012231 042.8014 317.4145 14.75769801391421
STRAND 1
1 39090U 13009E   19309.78773273  .00000037  00000-0  28000-4 0  9994
2 39090  98.4736 153.3117 0008222 228.6908 131.3571 14.35103788350481
SOMP
1 39134U 13015E   19309.86975489 +.00001456 +00000-0 +74685-4 0  9998
2 39134 064.8625 286.1930 0037360 280.6809 079.0113 15.20468281361529
BEESAT 3
1 39135U 13015F   19309.44962031 +.00001020 +00000-0 +59469-4 0  9992
2 39135 064.8669 307.8401 0039022 286.2853 073.3982 15.17705532361069
BEESAT 2
1 39136U 13015G   19309.40814771 +.00001014 +00000-0 +60416-4 0  9993
2 39136 064.8680 312.2041 0029933 291.1403 068.6524 15.17120243360977
CUBEBUG 1
1 39153U 13018D   19309.72510244 +.00000205 +00000-0 +33642-4 0  9990
2 39153 097.9816 047.0883 0018289 104.1292 256.1954 14.80619070352536
ZACUBE
1 39417U 13066B   19309.95336003 +.00000211 +00000-0 +32957-4 0  9995
2 39417 097.5623 315.5707 0057553 294.7525 064.7706 14.81173090321803
TRITON 1
1 39427U 13066M   19309.88020138 +.00000218 +00000-0 +42311-4 0  9999
2 39427 097.6949 278.7283 0115189 076.8066 284.5961 14.67900402318714
GOMX 1
1 39430U 13066Q   19309.91346283 +.00000156 +00000-0 +37054-4 0  9998
2 39430 097.7631 257.3454 0151048 171.6546 188.7224 14.59304020317059
HUMSAT D
1 39433U 13066T   19309.55801039 +.00000300 +00000-0 +34434-4 0  9996
2 39433 097.5379 351.2341 0030525 191.1708 168.8838 14.92291502322751
CUBEBUG 2
1 39440U 13066AA  19309.95666839 +.00000247 +00000-0 +41325-4 0  9992
2 39440 097.6118 300.1780 0079973 350.3863 009.5812 14.75910996319465
FUNCUBE 1
1 39444U 13066AE  19309.80849863 +.00000272 +00000-0 +39808-4 0  9991
2 39444 097.5591 317.5093 0056611 288.3256 071.1806 14.82003765320096
UWE-3
1 39446U 13066AG  19309.92355162 +.00000224 +00000-0 +36436-4 0  9991
2 39446 097.5864 307.2997 0069109 323.4688 036.1819 14.78445663319394
SPROUT
1 39770U 14029E   19309.76013450  .00000797  00000-0  94022-4 0  9994
2 39770  97.8896  52.1966 0008939 353.6642   6.4425 14.87490702295652
UNISAT 6
1 40012U 14033C   19309.85591367 +.00000174 +00000-0 +33296-4 0  9993
2 40012 097.7361 170.2826 0058629 006.9674 353.2337 14.74027965289336
DUCHIFAT 1
1 40021U 14033M   19309.76855930 +.00000345 +00000-0 +41032-4 0  9999
2 40021 097.9272 234.8388 0011943 313.4809 046.5415 14.90726886292411
QB50P1
1 40025U 14033R   19309.81561132 +.00000245 +00000-0 +32072-4 0  9990
2 40025 097.9057 229.2613 0011622 324.4864 035.5578 14.89013429291666
CHUBUSAT 1
1 40300U 14070C   19309.69514600  .00000652  00000-0  31260-4 0  9991
2 40300  97.3140  20.2531 0018853 286.3485 225.0786 15.22236020277310
NUDT-PHONESAT
1 40900U 15049B   19309.85872980  .00001981  00000-0  86507-4 0  9990
2 40900  97.4368 317.8500 0014173  56.8480  63.9855 15.23233258228993
ZDPS 2A
1 40901U 15049C   19309.95755328 +.00000622 +00000-0 +33916-4 0  9995
2 40901 097.4621 313.7818 0015102 076.1489 314.7551 15.17910534228510
ZDPS 2B
1 40902U 15049D   19309.88129832 +.00001173 +00000-0 +61236-4 0  9991
2 40902 097.4582 311.0897 0015074 074.4190 042.6497 15.17792464228474
XW-2A
1 40903U 15049E   19309.81898907  .00001566  00000-0  38322-4 0  9997
2 40903  97.3214 353.2786 0013535   5.8519 107.1492 15.42279492231840
KAITUO 1A
1 40904U 15049F   19309.91552858 +.00000660 +00000-0 +38271-4 0  9998
2 40904 097.4715 309.5650 0016337 082.6739 006.7353 15.15489589228231
OBJECT G
1 40905U 15049G   19309.95320315 +.00000083 +00000-0 +81062-5 0  9990
2 40905 097.4767 307.0094 0017308 078.2293 312.3654 15.14379566228107
XW-2C
1 40906U 15049H   19309.82713170  .00000463  00000-0  27661-4 0  9998
2 40906  97.4730 309.6274 0016423  75.2780  46.6213 15.15808815228227
XW-2D
1 40907U 15049J   19309.91274497 +.00000586 +00000-0 +33899-4 0  9999
2 40907 097.4701 309.3940 0015725 072.1146 015.8347 15.16010108228259
LILACSAT 2
1 40908U 15049K   19309.79644882  .00000484  00000-0  30263-4 0  9994
2 40908  97.4841 307.9436 0017575  79.2383  45.1327 15.13884590228003
XW-2F
1 40910U 15049M   19309.87115348 +.00001119 +00000-0 +59002-4 0  9994
2 40910 097.4656 311.5701 0016346 064.8926 020.3169 15.17514192228274
XW-2B
1 40911U 15049N   19309.88521300 +.00000578 +00000-0 +33536-4 0  9997
2 40911 097.4729 310.0405 0015661 073.1647 010.8451 15.15938310228147
KAITUO 1B
1 40912U 15049P   19309.82694535  .00001138  00000-0  56118-4 0  9997
2 40912  97.4510 315.3892 0016165  47.7859  76.4865 15.19852904228590
TIANWANG 1C (TW-1C)
1 40926U 15051B   19309.82867957  .00011873  00000-0  15599-3 0  9999
2 40926  97.1189 355.9349 0006662 196.5173 276.7034 15.58630302231961
TIANWANG 1B (TW-1B)
1 40927U 15051C   19309.80809904  .00011190  00000-0  15721-3 0  9995
2 40927  97.1219 354.9930 0006608 208.3613 265.0348 15.56845366231798
